User: anonymous   Login
Location: Unspecified
(0.0000°N, 0.0000°E)
Time: 06:56:01
(UTC+00:00)
Language:

YAOGAN-39 04A - Orbit

View from above orbital plane
View from above orbital plane
View from above satellite
View from above satellite

Ground track
Ground track

The orbit is defined by the following mean orbital elements,

1 58141U          26145.35764162 +.00000000 +00000-0 +28919-3 0 00006
2 58141  34.9996 128.3131 0005147 176.5463 183.5288 15.23108783    02
Epoch (UTC): 25 May 2026 08:35:00
Eccentricity: 0.0005147
inclination: 34.9996°
perigee height: 493 km
apogee height: 500 km
right ascension of ascending node: 128.3131°
argument of perigee: 176.5463°
revolutions per day: 15.23108783
mean anomaly at epoch: 183.5288°

The dashed part of the orbit path shows where the satellite is in the earth's shadow,  

DLR